Weather WX

World > North America > United States > Ohio

Layland, Ohio Regional Weather

Lat: 40.50N, Lon: 81.99W
Wx Zone: OHZ038
Warning FLW WEATHER ALERT - FLASH FLOOD WATCH (More Info. Click Here) Warning
Feedback

Layland, OH Regional Weather

Expires:201906202200;;806148
ASUS41 KCLE 202112
RWRCLE
OHIO REGIONAL WEATHER ROUNDUP
NATIONAL WEATHER SERVICE WILMINGTON, OH
500 PM EDT THU JUN 20 2019

NOTE: "FAIR" INDICATES FEW OR NO CLOUDS BELOW 12,000 FEET WITH NO
SIGNIFICANT WEATHER AND/OR OBSTRUCTIONS TO VISIBILITY.


OHZ009>014-019>023-028>033-038-089-202200-
   NORTHEAST OHIO
  
CITY           SKY/WX    TMP DP  RH WIND       PRES   REMARKS
CLE-HOPKINS    LGT RAIN  66  64  93 N7        29.57S FOG              
CLE-LAKEFRONT  LGT RAIN  64  62  93 NE10      29.54S FOG              
CUY CO. ARPT   LGT RAIN  66  64  94 CALM      29.55S FOG              
LORAIN-ELYRIA  RAIN      66  61  84 NE6       29.56S                  
ASHTABULA      PTSUNNY   66  65  96 NE5       29.56F                  
AKRON-CANTON   LGT RAIN  71  66  84 W12       29.55S                  
WOOSTER        CLOUDY    68  65  90 N14       29.56R                  
MANSFIELD      RAIN      67  66  97 NE10      29.56F FOG              
YOUNGSTOWN     LGT RAIN  70  65  84 N9        29.54F                  
$$
 

SKY/WX - Weather  TMP - Temperature  DP - Dew Point  RH - Relative Humidity
WIND - Wind Direction/Speed PRES - Barometric Pressure VSB - Visibility
WCI - Wind Chill Index E13G22 Wind - East Wind 13 mph/Gusts of 22 mph